North Adams, MA

5:28 PM EDT on July 20, 2017 (GMT -0400)
Harriman And West

Weather History for KAQW - October, 2011

Change the Weather History Date:

Friday, October 28, 2011

  Actual Average Record
Temperature  
Mean Temperature 34 °F -  
Max Temperature 43 °F 52 °F 72 °F (2010)
Min Temperature 27 °F 33 °F 24 °F (2001)
Degree Days  
Heating Degree Days 30    
Moisture  
Dew Point 29 °F    
Average Humidity 86    
Maximum Humidity 100    
Minimum Humidity 55    
Precipitation  
Precipitation 0.00 in - - ()
Sea Level Pressure  
Sea Level Pressure 30.16 in    
Wind  
Wind Speed 4 mph (WSW)    
Max Wind Speed 8 mph    
Max Gust Speed -    
Visibility 10 miles    
Events      
Averages and records for this station are not official NWS values.
T = Trace of Precipitation, MM = Missing Value Source: NWS Daily Summary

Daily Weather History Graph

Daily Weather History Graph

Search for Another Location

Airport or City:

Trip Planner

Search our weather history database for the weather conditions in past years. The results will help you decide how hot, cold, wet, or windy it might be!

Date:

Astronomy

Oct. 28, 2011 Rise Set
Actual Time 7:21 AM EDT 5:51 PM EDT
Civil Twilight 6:52 AM EDT 6:20 PM EDT
Nautical Twilight 6:18 AM EDT 6:53 PM EDT
Astronomical Twilight 5:46 AM EDT 7:26 PM EDT
Moon 9:37 AM EDT (10/28) 7:07 PM EDT (10/28)
Length of Visible Light 11h 28m
Length of Day
10h 29m
Waxing Crescent, 5% of the Moon is Illuminated
Oct 28
Waxing Crescent
Nov 2
First Quarter
Nov 10
Full
Nov 18
Last Quarter
Nov 25
New

Hourly Weather History & Observations

Time (EDT) Temp. Windchill Dew Point Humidity Pressure Visibility Wind Dir Wind Speed Gust Speed Precip Events Conditions
12:52 AM 30.9 °F 26.2 °F 28.9 °F 92% 29.99 in 10.0 mi West 4.6 mph - N/A   Mostly Cloudy
1:41 AM 32.0 °F - 30.2 °F 93% 29.98 in 10.0 mi Calm Calm - N/A   Mostly Cloudy
1:52 AM 32.0 °F - 30.0 °F 92% 30.00 in 10.0 mi Calm Calm - N/A   Overcast
2:20 AM 32.0 °F 27.5 °F 28.4 °F 87% 29.99 in 10.0 mi WSW 4.6 mph - N/A   Overcast
2:52 AM 30.9 °F 24.3 °F 28.0 °F 89% 30.03 in 10.0 mi WSW 6.9 mph - N/A   Overcast
3:16 AM 30.2 °F 25.4 °F 28.4 °F 93% 30.01 in 10.0 mi West 4.6 mph - N/A   Overcast
3:52 AM 30.9 °F 26.2 °F 27.0 °F 85% 30.05 in 10.0 mi WSW 4.6 mph - N/A   Overcast
4:52 AM 30.0 °F 23.2 °F 27.0 °F 88% 30.08 in 10.0 mi WSW 6.9 mph - N/A   Mostly Cloudy
5:52 AM 28.9 °F 21.9 °F 26.1 °F 89% 30.12 in 10.0 mi WSW 6.9 mph - N/A   Mostly Cloudy
6:11 AM 28.4 °F 20.4 °F 26.6 °F 93% 30.09 in 10.0 mi WSW 8.1 mph - N/A   Scattered Clouds
6:52 AM 28.9 °F 21.9 °F 26.1 °F 89% 30.14 in 10.0 mi WSW 6.9 mph - N/A   Clear
7:52 AM 27.0 °F - 25.0 °F 92% 30.17 in 10.0 mi Calm Calm - N/A   Clear
8:52 AM 30.0 °F 23.2 °F 26.1 °F 85% 30.19 in 10.0 mi WSW 6.9 mph - N/A   Clear
9:52 AM 32.0 °F 25.6 °F 28.0 °F 85% 30.21 in 10.0 mi WSW 6.9 mph - N/A   Clear
10:52 AM 34.0 °F 28.8 °F 28.9 °F 82% 30.22 in 10.0 mi West 5.8 mph - N/A   Clear
11:52 AM 36.0 °F 30.3 °F 28.9 °F 76% 30.22 in 10.0 mi WSW 6.9 mph - N/A   Clear
12:52 PM 39.0 °F 34.8 °F 28.9 °F 67% 30.21 in 10.0 mi Variable 5.8 mph - N/A   Clear
1:52 PM 37.9 °F 33.5 °F 28.0 °F 68% 30.22 in 10.0 mi Variable 5.8 mph - N/A   Scattered Clouds
2:52 PM 39.0 °F 34.0 °F 28.0 °F 65% 30.21 in 10.0 mi Variable 6.9 mph - N/A   Mostly Cloudy
3:52 PM 42.1 °F 40.2 °F 27.0 °F 55% 30.21 in 10.0 mi Variable 3.5 mph - N/A   Mostly Cloudy
4:52 PM 39.0 °F - 28.0 °F 65% 30.21 in 10.0 mi Calm Calm - N/A   Partly Cloudy
5:52 PM 35.1 °F - 30.9 °F 85% 30.22 in 10.0 mi Calm Calm - N/A   Clear
6:52 PM 32.0 °F - 30.9 °F 96% 30.24 in 10.0 mi Calm Calm - N/A   Clear
7:52 PM 33.1 °F - 30.9 °F 92% 30.25 in 10.0 mi Calm Calm - N/A   Clear
8:52 PM 32.0 °F - 30.9 °F 96% 30.27 in 10.0 mi Calm Calm - N/A   Clear
9:52 PM 32.0 °F - 30.9 °F 96% 30.28 in 10.0 mi Calm Calm - N/A   Clear
10:52 PM 30.9 °F - 30.0 °F 96% 30.28 in 7.0 mi Calm Calm - N/A   Clear
11:04 PM 30.2 °F - 30.2 °F 100% 30.25 in 9.0 mi Calm Calm - N/A   Partly Cloudy
11:52 PM 30.0 °F - 28.9 °F 96% 30.28 in 7.0 mi Calm Calm - N/A   Scattered Clouds